Location: Mactaquac Provincial Park
(45.9573°N, 66.8897°W)
Time: 02:53:54
(UTC-03:00)

Cosmos 1867 - Visible Passes

Search period start: 28 May 2015 00:00
Search period end: 07 June 2015 00:00
Orbit: 777 x 799 km, 65.0° (Epoch: 27 May)

Date Brightness Start Highest point End Pass type
(mag) Time Alt. Az. Time Alt. Az. Time Alt. Az.
28 May 6.4 00:28:51 10° WNW 00:32:35 18° NNW 00:36:13 10° NNE visible
28 May 6.6 04:01:23 10° NNW 04:04:32 15° NNE 04:07:48 10° ENE visible
28 May 3.7 22:10:45 10° SW 22:16:12 82° NW 22:21:42 10° NE visible
28 May 6.2 23:56:32 10° W 00:00:40 21° NNW 00:04:45 10° NNE visible
29 May 7.0 01:45:42 10° NNW 01:46:28 10° N 01:47:11 10° N visible
29 May 6.8 03:29:55 10° N 03:32:34 14° NNE 03:35:19 10° NE visible
29 May 3.6 21:39:09 10° SSW 21:44:34 77° ESE 21:50:03 10° NE visible
29 May 6.0 23:24:18 10° W 23:28:48 25° NW 23:33:15 10° NNE visible
30 May 7.0 01:12:59 10° NNW 01:14:26 11° N 01:15:49 10° N visible
30 May 6.9 02:58:29 10° N 03:00:34 12° NNE 03:02:45 10° NE visible
30 May 5.7 04:41:08 10° NNW 04:45:59 31° NE 04:50:51 10° ESE visible
30 May 5.7 22:52:10 10° W 22:56:57 30° NW 23:01:45 10° NNE visible
31 May 7.0 00:40:21 10° NW 00:42:24 12° NNW 00:44:23 10° N visible
31 May 7.1 02:27:03 10° N 02:28:33 11° NNE 02:30:08 10° NNE visible
31 May 6.1 04:09:37 10° NNW 04:14:09 26° NE 04:18:43 10° E visible
31 May 5.3 22:20:06 10° WSW 22:25:09 37° NW 22:30:13 10° NNE visible
01 Jun 6.9 00:07:46 10° NW 00:10:24 13° NNW 00:12:57 10° N visible
01 Jun 7.2 01:55:39 10° N 01:56:31 10° N 01:57:26 10° NNE visible
01 Jun 6.3 03:38:08 10° NNW 03:42:16 22° NNE 03:46:30 10° E visible
01 Jun 4.9 21:48:10 10° WSW 21:53:24 47° NW 21:58:41 10° NNE visible
01 Jun 6.8 23:35:16 10° WNW 23:38:25 15° NNW 23:41:29 10° NNE visible
02 Jun 6.5 03:06:39 10° NNW 03:10:22 18° NNE 03:14:11 10° ENE visible
02 Jun 4.1 04:49:35 10° NNW 04:55:03 66° NE 05:00:29 10° SE visible
02 Jun 6.7 23:02:51 10° WNW 23:06:28 17° NNW 23:10:01 10° NNE visible
03 Jun 6.7 02:35:10 10° NNW 02:38:26 16° NNE 02:41:48 10° ENE visible
03 Jun 4.6 04:18:01 10° NNW 04:23:22 52° NE 04:28:41 10° SE visible
03 Jun 6.5 22:30:31 10° WNW 22:34:33 20° NNW 22:38:32 10° NNE visible
04 Jun 7.1 00:19:47 10° NNW 00:20:23 10° N 00:20:55 10° N visible
04 Jun 6.7 02:03:43 10° N 02:06:28 14° NNE 02:09:19 10° NE visible
04 Jun 5.0 03:46:28 10° NNW 03:51:37 41° NE 03:56:47 10° ESE visible
04 Jun 6.3 21:58:14 10° W 22:02:40 24° NW 22:07:03 10° NNE visible
04 Jun 7.0 23:47:02 10° NNW 23:48:20 11° N 23:49:35 10° N visible
05 Jun 6.7 01:32:16 10° N 01:34:29 12° NNE 01:36:47 10° NE visible
05 Jun 5.4 03:14:56 10° NNW 03:19:50 33° NE 03:24:46 10° ESE visible
05 Jun 3.7 04:58:24 10° NW 05:03:43 52° WSW 05:08:58 10° SSE visible
05 Jun 6.9 23:14:23 10° NW 23:16:19 12° NNW 23:18:10 10° N visible
06 Jun 6.8 01:00:49 10° N 01:02:27 11° NNE 01:04:10 10° NNE visible
06 Jun 5.7 02:43:25 10° NNW 02:48:01 27° NE 02:52:39 10° E visible
06 Jun 3.5 04:26:41 10° NW 04:32:08 69° WSW 04:37:33 10° SSE visible
06 Jun 6.7 22:41:48 10° NW 22:44:18 13° NNW 22:46:44 10° N visible
